| time (UTC) | temp C | wind direction | speed KPH | gust KPH | rain 1hr cm | rain 24hr cm | rain mn cm | humidity % | barometer mb |
| 20260904093826 | 17 | 291 | 0.0 | 0.0 | 0.00 | 0.00 | 0.00 | 99 | 1009.5 |
| 20260904093321 | 17 | 275 | 1.6 | 3.2 | 0.00 | 0.00 | 0.00 | 99 | 1009.5 |
| 20260904092816 | 17 | 319 | 0.0 | 0.0 | 0.00 | 0.00 | 0.00 | 99 | 1009.4 |
| 20260904092313 | 17 | 303 | 1.6 | 1.6 | 0.00 | 0.00 | 0.00 | 99 | 1009.3 |
| 20260904091808 | 17 | 306 | 0.0 | 0.0 | 0.00 | 0.00 | 0.00 | 99 | 1009.4 |
| 20260904091303 | 17 | 305 | 0.0 | 0.0 | 0.00 | 0.00 | 0.00 | 99 | 1009.4 |
| 20260904090758 | 17 | 298 | 0.0 | 0.0 | 0.00 | 0.00 | 0.00 | 99 | 1009.2 |
| 20260904090254 | 17 | 297 | 0.0 | 0.0 | 0.00 | 0.00 | 0.00 | 99 | 1009.5 |
| 20260904085749 | 17 | 301 | 0.0 | 0.0 | 0.00 | 0.00 | 0.00 | 99 | 1009.3 |
| 20260904085244 | 17 | 293 | 0.0 | 0.0 | 0.00 | 0.00 | 0.00 | 99 | 1009.4 |
| 20260904084739 | 17 | 302 | 0.0 | 0.0 | 0.00 | 0.00 | 0.00 | 99 | 1009.5 |
| 20260904084234 | 17 | 283 | 0.0 | 0.0 | 0.00 | 0.00 | 0.00 | 99 | 1009.3 |
| 20260904083730 | 17 | 296 | 0.0 | 0.0 | 0.00 | 0.00 | 0.00 | 99 | 1009.3 |
| 20260904083226 | 17 | 296 | 0.0 | 0.0 | 0.00 | 0.00 | 0.00 | 99 | 1009.3 |
| 20260904082721 | 17 | 304 | 0.0 | 0.0 | 0.00 | 0.00 | 0.00 | 99 | 1009.4 |
| 20260904082216 | 17 | 304 | 0.0 | 0.0 | 0.00 | 0.00 | 0.00 | 99 | 1009.4 |
| 20260904081712 | 17 | 299 | 0.0 | 0.0 | 0.00 | 0.00 | 0.00 | 99 | 1009.4 |
| 20260904081207 | 17 | 299 | 0.0 | 0.0 | 0.00 | 0.00 | 0.00 | 99 | 1009.4 |
| 20260904080702 | 17 | 299 | 0.0 | 0.0 | 0.00 | 0.00 | 0.00 | 99 | 1009.5 |
| 20260904080152 | 17 | 299 | 0.0 | 0.0 | 0.00 | 0.00 | 0.00 | 99 | 1009.5 |
| 20260904075649 | 17 | 306 | 0.0 | 0.0 | 0.00 | 0.00 | 0.00 | 99 | 1009.6 |
| 20260904075149 | 17 | 315 | 0.0 | 0.0 | 0.00 | 0.00 | 0.00 | 99 | 1009.7 |
| 20260904074643 | 17 | 311 | 0.0 | 0.0 | 0.00 | 0.00 | 0.00 | 99 | 1009.6 |
| 20260904074137 | 17 | 303 | 0.0 | 0.0 | 0.00 | 0.00 | 0.00 | 99 | 1009.7 |
| 20260904073632 | 17 | 303 | 0.0 | 0.0 | 0.00 | 0.00 | 0.00 | 99 | 1009.7 |
| 20260904073129 | 17 | 306 | 0.0 | 0.0 | 0.00 | 0.00 | 0.00 | 99 | 1009.8 |
| 20260904072625 | 17 | 298 | 0.0 | 0.0 | 0.00 | 0.00 | 0.00 | 99 | 1009.7 |
| 20260904072119 | 17 | 306 | 0.0 | 0.0 | 0.00 | 0.00 | 0.00 | 99 | 1009.8 |
| 20260904071615 | 16 | 307 | 0.0 | 0.0 | 0.00 | 0.00 | 0.00 | 99 | 1010.1 |
| 20260904071109 | 16 | 307 | 0.0 | 0.0 | 0.00 | 0.00 | 0.00 | 99 | 1009.7 |
| 20260904070609 | 17 | 310 | 0.0 | 0.0 | 0.00 | 0.00 | 0.00 | 99 | 1009.8 |
| 20260904065552 | 17 | 313 | 0.0 | 0.0 | 0.00 | 0.00 | 0.00 | 99 | 1009.9 |
| 20260904065049 | 17 | 306 | 0.0 | 0.0 | 0.00 | 0.00 | 0.00 | 99 | 1009.9 |
| 20260904064545 | 16 | 302 | 0.0 | 0.0 | 0.00 | 0.00 | 0.00 | 99 | 1010.1 |
| 20260904064044 | 16 | 292 | 0.0 | 0.0 | 0.00 | 0.00 | 0.00 | 99 | 1009.9 |
| 20260904063541 | 16 | 298 | 0.0 | 0.0 | 0.00 | 0.00 | 0.00 | 99 | 1010.1 |
| 20260904063036 | 16 | 299 | 0.0 | 0.0 | 0.00 | 0.00 | 0.00 | 99 | 1010.1 |
| 20260904062532 | 16 | 284 | 0.0 | 0.0 | 0.00 | 0.00 | 0.00 | 99 | 1010.4 |
| 20260904062027 | 16 | 300 | 0.0 | 0.0 | 0.00 | 0.00 | 0.00 | 99 | 1010.2 |
| 20260904061523 | 16 | 300 | 0.0 | 0.0 | 0.00 | 0.00 | 0.00 | 99 | 1010.4 |
| 20260904061019 | 16 | 302 | 0.0 | 0.0 | 0.00 | 0.00 | 0.00 | 99 | 1010.6 |
| 20260904060515 | 16 | 308 | 0.0 | 0.0 | 0.00 | 0.00 | 0.00 | 99 | 1010.6 |
| 20260904060011 | 16 | 302 | 0.0 | 0.0 | 0.00 | 0.00 | 0.00 | 99 | 1010.5 |
| 20260904055506 | 16 | 301 | 0.0 | 0.0 | 0.00 | 0.00 | 0.00 | 99 | 1010.4 |
| 20260904055002 | 16 | 304 | 0.0 | 0.0 | 0.00 | 0.00 | 0.00 | 99 | 1010.9 |
| 20260904054457 | 16 | 302 | 0.0 | 0.0 | 0.00 | 0.00 | 0.00 | 99 | 1010.9 |
| 20260904053953 | 16 | 320 | 0.0 | 0.0 | 0.00 | 0.00 | 0.00 | 99 | 1010.8 |
| 20260904053452 | 16 | 298 | 0.0 | 0.0 | 0.00 | 0.00 | 0.00 | 99 | 1011.1 |
| 20260904052948 | 16 | 308 | 0.0 | 0.0 | 0.00 | 0.00 | 0.00 | 99 | 1011.1 |
| 20260904052444 | 16 | 308 | 0.0 | 0.0 | 0.00 | 0.00 | 0.00 | 99 | 1011.3 |
| 20260904051940 | 16 | 311 | 0.0 | 0.0 | 0.00 | 0.00 | 0.00 | 99 | 1011.2 |
| 20260904051437 | 16 | 305 | 0.0 | 0.0 | 0.00 | 0.00 | 0.00 | 99 | 1011.3 |
| 20260904050935 | 16 | 305 | 0.0 | 0.0 | 0.00 | 0.00 | 0.00 | 99 | 1011.5 |
| 20260904050432 | 16 | 305 | 0.0 | 0.0 | 0.00 | 0.00 | 0.00 | 99 | 1011.3 |
| 20260904045932 | 16 | 311 | 0.0 | 0.0 | 0.00 | 0.00 | 0.00 | 99 | 1011.0 |
| 20260904045426 | 16 | 311 | 0.0 | 0.0 | 0.00 | 0.00 | 0.00 | 99 | 1011.2 |
| 20260904044921 | 16 | 311 | 0.0 | 0.0 | 0.00 | 0.00 | 0.00 | 99 | 1011.3 |
| 20260904044418 | 16 | 303 | 0.0 | 0.0 | 0.00 | 0.00 | 0.00 | 99 | 1011.2 |
| 20260904043913 | 16 | 303 | 0.0 | 0.0 | 0.00 | 0.00 | 0.00 | 99 | 1011.3 |
| 20260904043410 | 16 | 301 | 0.0 | 0.0 | 0.00 | 0.00 | 0.00 | 99 | 1011.4 |
| 20260904042904 | 16 | 313 | 0.0 | 0.0 | 0.00 | 0.00 | 0.00 | 99 | 1011.2 |
| 20260904042400 | 16 | 310 | 0.0 | 0.0 | 0.00 | 0.00 | 0.00 | 99 | 1011.3 |
| 20260904041856 | 16 | 301 | 0.0 | 0.0 | 0.00 | 0.00 | 0.00 | 99 | 1011.4 |
| 20260904041352 | 16 | 316 | 0.0 | 0.0 | 0.00 | 0.00 | 0.00 | 99 | 1011.4 |
| 20260904040848 | 16 | 320 | 0.0 | 0.0 | 0.00 | 0.00 | 0.00 | 99 | 1011.8 |
| 20260904040343 | 16 | 303 | 0.0 | 0.0 | 0.00 | 0.00 | 0.00 | 99 | 1011.6 |
| 20260904035839 | 16 | 307 | 0.0 | 0.0 | 0.00 | 0.18 | 0.18 | 99 | 1011.7 |
| 20260904035335 | 16 | 297 | 0.0 | 0.0 | 0.00 | 0.18 | 0.18 | 99 | 1011.7 |
| 20260904034833 | 16 | 297 | 0.0 | 0.0 | 0.00 | 0.18 | 0.18 | 99 | 1011.7 |
| 20260904034329 | 16 | 296 | 0.0 | 0.0 | 0.00 | 0.18 | 0.18 | 99 | 1011.8 |
| 20260904033825 | 16 | 319 | 0.0 | 0.0 | 0.00 | 0.18 | 0.18 | 99 | 1011.7 |
| 20260904033321 | 16 | 296 | 0.0 | 0.0 | 0.00 | 0.18 | 0.18 | 99 | 1011.7 |
| 20260904032817 | 16 | 296 | 0.0 | 0.0 | 0.00 | 0.18 | 0.18 | 99 | 1011.6 |
| 20260904032317 | 16 | 296 | 0.0 | 0.0 | 0.00 | 0.18 | 0.18 | 99 | 1011.7 |
| 20260904031811 | 16 | 296 | 0.0 | 0.0 | 0.00 | 0.18 | 0.18 | 99 | 1011.6 |
| 20260904031307 | 16 | 296 | 0.0 | 0.0 | 0.00 | 0.18 | 0.18 | 99 | 1011.4 |
| 20260904030803 | 16 | 323 | 0.0 | 0.0 | 0.00 | 0.18 | 0.18 | 99 | 1011.5 |
| 20260904030258 | 16 | 320 | 0.0 | 0.0 | 0.00 | 0.18 | 0.18 | 99 | 1011.6 |
| 20260904025754 | 17 | 305 | 0.0 | 0.0 | 0.00 | 0.18 | 0.18 | 99 | 1011.8 |
| 20260904025249 | 17 | 1 | 0.0 | 0.0 | 0.00 | 0.18 | 0.18 | 99 | 1012.0 |
| 20260904024743 | 17 | 302 | 0.0 | 0.0 | 0.00 | 0.18 | 0.18 | 99 | 1011.9 |
| 20260904024238 | 17 | 288 | 0.0 | 0.0 | 0.00 | 0.18 | 0.18 | 99 | 1012.0 |
| 20260904023730 | 17 | 307 | 0.0 | 0.0 | 0.00 | 0.18 | 0.18 | 99 | 1011.9 |
| 20260904023226 | 17 | 288 | 0.0 | 0.0 | 0.00 | 0.18 | 0.18 | 99 | 1012.3 |
| 20260904022725 | 17 | 292 | 0.0 | 0.0 | 0.00 | 0.18 | 0.18 | 99 | 1012.2 |
| 20260904022222 | 17 | 301 | 0.0 | 0.0 | 0.00 | 0.18 | 0.18 | 99 | 1012.2 |
| 20260904021718 | 17 | 274 | 0.0 | 0.0 | 0.00 | 0.18 | 0.18 | 99 | 1012.4 |
| 20260904021212 | 17 | 306 | 0.0 | 0.0 | 0.00 | 0.18 | 0.18 | 99 | 1012.3 |
| 20260904020708 | 17 | 303 | 0.0 | 0.0 | 0.00 | 0.18 | 0.18 | 99 | 1012.4 |
| 20260904020208 | 17 | 305 | 0.0 | 0.0 | 0.00 | 0.18 | 0.18 | 99 | 1012.4 |
| 20260904015706 | 17 | 296 | 0.0 | 0.0 | 0.00 | 0.18 | 0.18 | 99 | 1012.6 |
| 20260904015201 | 17 | 296 | 0.0 | 0.0 | 0.00 | 0.18 | 0.18 | 99 | 1012.5 |
| 20260904014700 | 17 | 312 | 0.0 | 0.0 | 0.00 | 0.18 | 0.18 | 99 | 1012.5 |
| 20260904014155 | 17 | 303 | 0.0 | 0.0 | 0.00 | 0.18 | 0.18 | 99 | 1012.6 |
| 20260904013652 | 17 | 303 | 0.0 | 0.0 | 0.00 | 0.18 | 0.18 | 99 | 1012.5 |
| 20260904013147 | 17 | 303 | 0.0 | 0.0 | 0.00 | 0.18 | 0.18 | 99 | 1012.4 |
| 20260904012643 | 17 | 296 | 0.0 | 0.0 | 0.00 | 0.18 | 0.18 | 99 | 1012.6 |
| 20260904012142 | 17 | 296 | 0.0 | 0.0 | 0.00 | 0.18 | 0.18 | 99 | 1012.5 |
| 20260904011641 | 17 | 303 | 0.0 | 0.0 | 0.00 | 0.18 | 0.18 | 99 | 1012.6 |
| 20260904011137 | 17 | 319 | 0.0 | 0.0 | 0.00 | 0.18 | 0.18 | 99 | 1012.3 |
| 20260904010632 | 17 | 315 | 0.0 | 0.0 | 0.00 | 0.18 | 0.18 | 99 | 1012.6 |
| 20260904010129 | 17 | 286 | 0.0 | 0.0 | 0.00 | 0.18 | 0.18 | 99 | 1012.5 |
| 20260904005624 | 17 | 304 | 0.0 | 0.0 | 0.00 | 0.18 | 0.18 | 99 | 1012.3 |
| 20260904005119 | 18 | 296 | 0.0 | 0.0 | 0.00 | 0.18 | 0.18 | 99 | 1012.7 |
| 20260904004615 | 17 | 302 | 0.0 | 0.0 | 0.00 | 0.18 | 0.18 | 99 | 1012.6 |
| 20260904004114 | 18 | 292 | 0.0 | 0.0 | 0.00 | 0.18 | 0.18 | 99 | 1012.2 |
| 20260904003611 | 17 | 294 | 0.0 | 0.0 | 0.00 | 0.18 | 0.18 | 99 | 1012.3 |
| 20260904003106 | 18 | 279 | 0.0 | 0.0 | 0.00 | 0.18 | 0.18 | 99 | 1012.2 |
| 20260904002602 | 17 | 300 | 0.0 | 0.0 | 0.00 | 0.18 | 0.18 | 99 | 1012.3 |
| 20260904002056 | 17 | 309 | 0.0 | 0.0 | 0.00 | 0.18 | 0.18 | 99 | 1012.3 |
| 20260904001552 | 18 | 320 | 0.0 | 0.0 | 0.00 | 0.18 | 0.18 | 99 | 1012.2 |
| 20260904001050 | 18 | 322 | 0.0 | 0.0 | 0.00 | 0.18 | 0.18 | 99 | 1012.3 |
| 20260904000545 | 18 | 293 | 0.0 | 0.0 | 0.00 | 0.18 | 0.18 | 99 | 1012.4 |
| 20260904000036 | 18 | 292 | 0.0 | 0.0 | 0.00 | 0.18 | 0.18 | 99 | 1012.1 |
| 20260903235536 | 18 | 324 | 0.0 | 0.0 | 0.00 | 0.18 | 0.18 | 99 | 1012.1 |
| 20260903235032 | 18 | 315 | 0.0 | 0.0 | 0.00 | 0.18 | 0.18 | 99 | 1012.2 |
| 20260903234527 | 18 | 299 | 0.0 | 0.0 | 0.00 | 0.18 | 0.18 | 99 | 1012.1 |
| 20260903234022 | 18 | 307 | 0.0 | 0.0 | 0.00 | 0.18 | 0.18 | 99 | 1012.2 |
| 20260903233518 | 18 | 299 | 0.0 | 0.0 | 0.00 | 0.18 | 0.18 | 99 | 1012.2 |
| 20260903233014 | 18 | 301 | 0.0 | 0.0 | 0.00 | 0.18 | 0.18 | 99 | 1012.4 |
| 20260903232509 | 18 | 304 | 0.0 | 0.0 | 0.00 | 0.18 | 0.18 | 99 | 1012.2 |
| 20260903232009 | 18 | 308 | 0.0 | 0.0 | 0.00 | 0.18 | 0.18 | 99 | 1012.2 |
| 20260903231503 | 18 | 298 | 0.0 | 0.0 | 0.00 | 0.18 | 0.18 | 99 | 1012.5 |
| 20260903230957 | 18 | 298 | 0.0 | 0.0 | 0.00 | 0.18 | 0.18 | 99 | 1012.5 |
| 20260903230454 | 18 | 298 | 0.0 | 0.0 | 0.00 | 0.18 | 0.18 | 99 | 1012.4 |
| 20260903225950 | 18 | 283 | 0.0 | 0.0 | 0.00 | 0.18 | 0.18 | 99 | 1012.5 |
| 20260903225445 | 18 | 325 | 0.0 | 0.0 | 0.00 | 0.18 | 0.18 | 99 | 1012.3 |
| 20260903224942 | 18 | 324 | 0.0 | 0.0 | 0.00 | 0.18 | 0.18 | 99 | 1012.5 |
| 20260903224437 | 18 | 296 | 0.0 | 0.0 | 0.00 | 0.18 | 0.18 | 98 | 1012.5 |
| 20260903223933 | 18 | 306 | 0.0 | 0.0 | 0.00 | 0.18 | 0.18 | 99 | 1012.5 |
| 20260903223432 | 18 | 315 | 0.0 | 0.0 | 0.00 | 0.18 | 0.18 | 98 | 1012.3 |
| 20260903222931 | 18 | 309 | 0.0 | 0.0 | 0.00 | 0.18 | 0.18 | 98 | 1012.5 |
| 20260903222427 | 18 | 310 | 0.0 | 0.0 | 0.00 | 0.18 | 0.18 | 97 | 1012.3 |
| 20260903221921 | 18 | 314 | 0.0 | 0.0 | 0.00 | 0.18 | 0.18 | 97 | 1012.6 |
| 20260903221420 | 18 | 308 | 0.0 | 0.0 | 0.00 | 0.18 | 0.18 | 97 | 1012.6 |
| 20260903220918 | 18 | 308 | 0.0 | 0.0 | 0.00 | 0.18 | 0.18 | 96 | 1012.5 |
| 20260903220412 | 18 | 300 | 0.0 | 0.0 | 0.00 | 0.18 | 0.18 | 97 | 1012.5 |
| 20260903215909 | 18 | 304 | 0.0 | 0.0 | 0.00 | 0.18 | 0.18 | 97 | 1012.4 |
| 20260903215407 | 18 | 308 | 0.0 | 0.0 | 0.00 | 0.18 | 0.18 | 97 | 1012.5 |
| 20260903214905 | 18 | 298 | 0.0 | 0.0 | 0.00 | 0.18 | 0.18 | 98 | 1012.5 |
| 20260903214401 | 18 | 310 | 0.0 | 0.0 | 0.00 | 0.18 | 0.18 | 96 | 1012.5 |
| 20260903213901 | 18 | 301 | 0.0 | 0.0 | 0.00 | 0.18 | 0.18 | 96 | 1012.3 |
| 20260903213356 | 18 | 314 | 0.0 | 0.0 | 0.00 | 0.18 | 0.18 | 96 | 1012.5 |
| 20260903212852 | 18 | 289 | 0.0 | 0.0 | 0.00 | 0.18 | 0.18 | 96 | 1012.4 |
| 20260903212348 | 18 | 302 | 0.0 | 0.0 | 0.00 | 0.18 | 0.18 | 96 | 1012.6 |
| 20260903211847 | 18 | 298 | 0.0 | 0.0 | 0.00 | 0.18 | 0.18 | 96 | 1012.5 |
| 20260903211343 | 18 | 299 | 0.0 | 0.0 | 0.00 | 0.18 | 0.18 | 96 | 1012.5 |
| 20260903210839 | 18 | 294 | 0.0 | 0.0 | 0.00 | 0.18 | 0.18 | 96 | 1012.6 |
| 20260903210333 | 18 | 288 | 0.0 | 0.0 | 0.00 | 0.18 | 0.18 | 97 | 1012.6 |
| 20260903205833 | 18 | 292 | 0.0 | 0.0 | 0.00 | 0.18 | 0.18 | 97 | 1012.6 |
| 20260903205333 | 18 | 304 | 0.0 | 0.0 | 0.00 | 0.18 | 0.18 | 97 | 1012.4 |
| 20260903204828 | 18 | 286 | 0.0 | 0.0 | 0.00 | 0.18 | 0.18 | 98 | 1012.7 |
| 20260903204324 | 18 | 319 | 0.0 | 0.0 | 0.00 | 0.18 | 0.18 | 97 | 1012.6 |
| 20260903203819 | 18 | 91 | 0.0 | 1.6 | 0.00 | 0.18 | 0.18 | 97 | 1012.7 |
| 20260903203315 | 18 | 295 | 0.0 | 0.0 | 0.00 | 0.18 | 0.18 | 98 | 1012.6 |
| 20260903202814 | 18 | 313 | 0.0 | 0.0 | 0.00 | 0.18 | 0.18 | 98 | 1012.8 |
| 20260903202311 | 18 | 332 | 0.0 | 0.0 | 0.00 | 0.18 | 0.18 | 98 | 1012.6 |
| 20260903201810 | 18 | 301 | 0.0 | 0.0 | 0.00 | 0.18 | 0.18 | 98 | 1012.7 |
| 20260903201305 | 18 | 272 | 0.0 | 1.6 | 0.00 | 0.18 | 0.18 | 98 | 1012.7 |
| 20260903200804 | 18 | 88 | 1.6 | 3.2 | 0.00 | 0.18 | 0.18 | 97 | 1012.7 |
| 20260903200259 | 18 | 291 | 0.0 | 0.0 | 0.00 | 0.18 | 0.18 | 98 | 1012.7 |
| 20260903195754 | 18 | 279 | 0.0 | 0.0 | 0.00 | 0.18 | 0.18 | 97 | 1012.7 |
| 20260903195250 | 18 | 268 | 0.0 | 0.0 | 0.00 | 0.18 | 0.18 | 98 | 1012.9 |
| 20260903194745 | 18 | 344 | 0.0 | 0.0 | 0.00 | 0.18 | 0.18 | 97 | 1013.2 |
| 20260903194241 | 18 | 204 | 1.6 | 1.6 | 0.00 | 0.18 | 0.18 | 97 | 1012.9 |
| 20260903193736 | 18 | 268 | 1.6 | 1.6 | 0.00 | 0.18 | 0.18 | 97 | 1012.8 |
| 20260903193232 | 18 | 21 | 1.6 | 1.6 | 0.00 | 0.18 | 0.18 | 96 | 1013.2 |
| 20260903192728 | 19 | 306 | 0.0 | 0.0 | 0.00 | 0.18 | 0.18 | 97 | 1013.2 |
| 20260903192223 | 18 | 315 | 0.0 | 0.0 | 0.00 | 0.18 | 0.18 | 97 | 1013.3 |
| 20260903191719 | 18 | 330 | 0.0 | 0.0 | 0.00 | 0.18 | 0.18 | 97 | 1013.2 |
| 20260903191214 | 18 | 307 | 0.0 | 0.0 | 0.00 | 0.18 | 0.18 | 98 | 1013.2 |
| 20260903190703 | 18 | 317 | 0.0 | 0.0 | 0.00 | 0.18 | 0.18 | 98 | 1013.3 |
| 20260903190203 | 18 | 359 | 0.0 | 0.0 | 0.00 | 0.18 | 0.18 | 99 | 1013.4 |
| 20260903185658 | 18 | 313 | 0.0 | 0.0 | 0.00 | 0.18 | 0.18 | 99 | 1013.6 |
| 20260903185153 | 18 | 335 | 1.6 | 1.6 | 0.00 | 0.18 | 0.18 | 99 | 1013.5 |
| 20260903184649 | 18 | 44 | 1.6 | 3.2 | 0.00 | 0.18 | 0.18 | 99 | 1013.5 |
| 20260903184145 | 18 | 257 | 1.6 | 1.6 | 0.00 | 0.18 | 0.18 | 99 | 1013.6 |
| 20260903183644 | 18 | 16 | 3.2 | 3.2 | 0.00 | 0.18 | 0.18 | 99 | 1013.8 |
| 20260903183139 | 17 | 340 | 0.0 | 0.0 | 0.00 | 0.18 | 0.18 | 99 | 1013.9 |
| 20260903182638 | 17 | 311 | 0.0 | 0.0 | 0.00 | 0.18 | 0.18 | 99 | 1013.9 |
| 20260903182134 | 17 | 194 | 0.0 | 0.0 | 0.00 | 0.18 | 0.18 | 99 | 1013.8 |
| 20260903181632 | 17 | 284 | 1.6 | 3.2 | 0.00 | 0.18 | 0.18 | 99 | 1014.0 |
| 20260903181127 | 17 | 311 | 0.0 | 1.6 | 0.00 | 0.18 | 0.18 | 99 | 1013.8 |
| 20260903180622 | 17 | 291 | 0.0 | 0.0 | 0.00 | 0.18 | 0.18 | 99 | 1014.0 |
| 20260903180117 | 17 | 290 | 1.6 | 1.6 | 0.00 | 0.18 | 0.18 | 99 | 1014.0 |
| 20260903175616 | 17 | 18 | 3.2 | 3.2 | 0.00 | 0.18 | 0.18 | 99 | 1014.0 |
| 20260903175115 | 17 | 16 | 1.6 | 3.2 | 0.00 | 0.18 | 0.18 | 99 | 1013.9 |
| 20260903174610 | 17 | 64 | 3.2 | 4.8 | 0.00 | 0.18 | 0.18 | 99 | 1013.7 |
| 20260903174105 | 17 | 323 | 0.0 | 0.0 | 0.00 | 0.18 | 0.18 | 99 | 1013.9 |
| 20260903173559 | 17 | 58 | 3.2 | 4.8 | 0.00 | 0.18 | 0.18 | 99 | 1013.9 |
| 20260903173056 | 17 | 188 | 1.6 | 3.2 | 0.00 | 0.18 | 0.18 | 99 | 1013.9 |
| 20260903172550 | 17 | 170 | 1.6 | 1.6 | 0.00 | 0.18 | 0.18 | 99 | 1013.8 |
| 20260903172046 | 17 | 48 | 1.6 | 1.6 | 0.00 | 0.18 | 0.18 | 99 | 1013.7 |
| 20260903171540 | 17 | 325 | 1.6 | 1.6 | 0.00 | 0.18 | 0.18 | 99 | 1013.8 |
| 20260903171036 | 17 | 7 | 0.0 | 1.6 | 0.00 | 0.18 | 0.18 | 99 | 1014.0 |
| 20260903170534 | 17 | 132 | 1.6 | 3.2 | 0.00 | 0.18 | 0.18 | 99 | 1014.0 |
| 20260903170030 | 17 | 272 | 1.6 | 1.6 | 0.00 | 0.18 | 0.18 | 99 | 1014.0 |
| 20260903165527 | 17 | 357 | 3.2 | 3.2 | 0.00 | 0.18 | 0.18 | 99 | 1014.0 |
| 20260903165023 | 17 | 49 | 1.6 | 1.6 | 0.00 | 0.18 | 0.18 | 99 | 1014.0 |
| 20260903164518 | 17 | 35 | 1.6 | 1.6 | 0.00 | 0.18 | 0.18 | 99 | 1014.1 |
| 20260903164014 | 17 | 26 | 0.0 | 0.0 | 0.00 | 0.18 | 0.18 | 99 | 1014.2 |
| 20260903163509 | 17 | 330 | 1.6 | 1.6 | 0.00 | 0.18 | 0.18 | 99 | 1014.1 |
| 20260903163005 | 17 | 36 | 3.2 | 3.2 | 0.00 | 0.18 | 0.18 | 99 | 1014.3 |
| 20260903162501 | 17 | 51 | 1.6 | 3.2 | 0.00 | 0.18 | 0.18 | 99 | 1014.4 |
| 20260903161956 | 17 | 227 | 1.6 | 1.6 | 0.00 | 0.18 | 0.18 | 99 | 1014.5 |
| 20260903161451 | 16 | 7 | 0.0 | 1.6 | 0.00 | 0.18 | 0.18 | 99 | 1014.7 |
| 20260903160948 | 17 | 2 | 1.6 | 1.6 | 0.00 | 0.18 | 0.18 | 99 | 1014.6 |
| 20260903160446 | 17 | 202 | 3.2 | 4.8 | 0.00 | 0.18 | 0.18 | 99 | 1014.8 |
| 20260903155945 | 16 | 275 | 1.6 | 1.6 | 0.00 | 0.18 | 0.18 | 99 | 1014.7 |
| 20260903155440 | 17 | 155 | 3.2 | 4.8 | 0.00 | 0.18 | 0.18 | 99 | 1014.6 |
| 20260903154935 | 17 | 27 | 1.6 | 1.6 | 0.00 | 0.18 | 0.18 | 99 | 1014.6 |
| 20260903154426 | 17 | 353 | 0.0 | 0.0 | 0.00 | 0.18 | 0.18 | 99 | 1015.0 |
| 20260903153921 | 17 | 151 | 0.0 | 1.6 | 0.00 | 0.18 | 0.18 | 99 | 1014.9 |
| 20260903153416 | 17 | 207 | 1.6 | 3.2 | 0.00 | 0.18 | 0.18 | 99 | 1015.0 |
| 20260903152913 | 17 | 321 | 1.6 | 3.2 | 0.00 | 0.18 | 0.18 | 99 | 1015.0 |
| 20260903152408 | 17 | 266 | 0.0 | 0.0 | 0.00 | 0.18 | 0.18 | 99 | 1015.2 |
| 20260903151903 | 17 | 56 | 1.6 | 1.6 | 0.00 | 0.18 | 0.18 | 99 | 1015.3 |
| 20260903151358 | 17 | 318 | 1.6 | 1.6 | 0.00 | 0.18 | 0.18 | 99 | 1015.3 |
| 20260903150852 | 17 | 39 | 3.2 | 3.2 | 0.00 | 0.18 | 0.18 | 99 | 1015.4 |
| 20260903150346 | 17 | 201 | 3.2 | 3.2 | 0.00 | 0.18 | 0.18 | 99 | 1015.3 |
| 20260903145841 | 16 | 318 | 1.6 | 3.2 | 0.00 | 0.18 | 0.18 | 99 | 1015.6 |
| 20260903145337 | 17 | 29 | 0.0 | 1.6 | 0.00 | 0.18 | 0.18 | 99 | 1015.4 |
| 20260903144836 | 16 | 299 | 0.0 | 0.0 | 0.00 | 0.18 | 0.18 | 99 | 1015.3 |
| 20260903144331 | 16 | 18 | 1.6 | 1.6 | 0.00 | 0.18 | 0.18 | 99 | 1015.4 |
| 20260903143826 | 16 | 143 | 0.0 | 0.0 | 0.00 | 0.18 | 0.18 | 99 | 1015.4 |
| 20260903143323 | 16 | 90 | 1.6 | 3.2 | 0.00 | 0.18 | 0.18 | 99 | 1015.5 |
| 20260903142819 | 16 | 177 | 1.6 | 3.2 | 0.00 | 0.18 | 0.18 | 99 | 1015.6 |
| 20260903142315 | 16 | 306 | 0.0 | 0.0 | 0.00 | 0.18 | 0.18 | 99 | 1015.6 |
| 20260903141810 | 16 | 67 | 1.6 | 1.6 | 0.00 | 0.18 | 0.18 | 99 | 1015.8 |
| 20260903141306 | 16 | 73 | 1.6 | 1.6 | 0.00 | 0.18 | 0.18 | 99 | 1015.6 |
| 20260903140806 | 16 | 304 | 0.0 | 0.0 | 0.00 | 0.18 | 0.18 | 99 | 1015.7 |
| 20260903140300 | 16 | 9 | 1.6 | 1.6 | 0.00 | 0.18 | 0.18 | 99 | 1015.7 |
| 20260903135756 | 16 | 319 | 0.0 | 1.6 | 0.00 | 0.18 | 0.18 | 99 | 1016.0 |
| 20260903135252 | 16 | 23 | 3.2 | 3.2 | 0.00 | 0.18 | 0.18 | 99 | 1015.8 |
| 20260903134750 | 16 | 322 | 0.0 | 0.0 | 0.00 | 0.18 | 0.18 | 99 | 1015.7 |
| 20260903134246 | 16 | 295 | 0.0 | 0.0 | 0.00 | 0.18 | 0.18 | 99 | 1015.9 |
| 20260903133743 | 16 | 23 | 3.2 | 3.2 | 0.00 | 0.18 | 0.18 | 99 | 1015.8 |
| 20260903133240 | 16 | 281 | 1.6 | 3.2 | 0.00 | 0.18 | 0.18 | 99 | 1015.8 |
| 20260903132740 | 16 | 32 | 1.6 | 1.6 | 0.00 | 0.18 | 0.18 | 99 | 1015.9 |
| 20260903132235 | 16 | 325 | 0.0 | 0.0 | 0.00 | 0.18 | 0.18 | 99 | 1015.8 |
| 20260903131730 | 16 | 340 | 0.0 | 0.0 | 0.00 | 0.18 | 0.18 | 99 | 1016.0 |
| 20260903131225 | 16 | 41 | 3.2 | 3.2 | 0.00 | 0.18 | 0.18 | 99 | 1015.9 |
| 20260903130725 | 16 | 252 | 1.6 | 3.2 | 0.00 | 0.18 | 0.18 | 99 | 1016.0 |
| 20260903130221 | 16 | 334 | 0.0 | 0.0 | 0.00 | 0.18 | 0.18 | 99 | 1015.8 |
| 20260903125718 | 16 | 236 | 1.6 | 1.6 | 0.00 | 0.18 | 0.18 | 99 | 1016.1 |
| 20260903125214 | 16 | 304 | 1.6 | 1.6 | 0.00 | 0.18 | 0.18 | 99 | 1016.2 |
| 20260903124713 | 16 | 14 | 3.2 | 3.2 | 0.00 | 0.18 | 0.18 | 99 | 1016.0 |
| 20260903124208 | 16 | 274 | 0.0 | 1.6 | 0.00 | 0.18 | 0.18 | 99 | 1016.2 |
| 20260903123707 | 16 | 326 | 0.0 | 0.0 | 0.13 | 0.18 | 0.18 | 99 | 1016.1 |
| 20260903123206 | 16 | 312 | 0.0 | 0.0 | 0.13 | 0.18 | 0.18 | 99 | 1016.2 |
| 20260903122700 | 16 | 305 | 1.6 | 1.6 | 0.00 | 0.15 | 0.15 | 99 | 1016.1 |
| 20260903122154 | 15 | 301 | 0.0 | 0.0 | 0.00 | 0.15 | 0.15 | 99 | 1016.5 |
| 20260903121654 | 15 | 339 | 0.0 | 0.0 | 0.00 | 0.15 | 0.15 | 99 | 1016.4 |
| 20260903121150 | 15 | 321 | 0.0 | 1.6 | 0.18 | 0.15 | 0.15 | 99 | 1016.5 |
| 20260903120649 | 15 | 321 | 0.0 | 0.0 | 0.30 | 0.15 | 0.15 | 99 | 1016.6 |
| 20260903120143 | 15 | 305 | 0.0 | 0.0 | 0.13 | 0.13 | 0.13 | 99 | 1016.7 |
| 20260903115641 | 15 | 306 | 0.0 | 0.0 | 0.00 | 0.10 | 0.10 | 99 | 1016.9 |
| 20260903115137 | 15 | 306 | 0.0 | 0.0 | 0.00 | 0.10 | 0.10 | 99 | 1016.9 |
| 20260903114632 | 15 | 298 | 0.0 | 0.0 | 0.00 | 0.10 | 0.10 | 99 | 1016.8 |
| 20260903114127 | 15 | 312 | 0.0 | 0.0 | 0.00 | 0.10 | 0.10 | 99 | 1016.7 |
| 20260903113623 | 15 | 321 | 0.0 | 0.0 | 0.00 | 0.10 | 0.10 | 99 | 1016.8 |
| 20260903113119 | 15 | 310 | 0.0 | 0.0 | 0.00 | 0.10 | 0.10 | 99 | 1016.6 |
| 20260903112615 | 15 | 308 | 0.0 | 0.0 | 0.00 | 0.10 | 0.10 | 99 | 1016.5 |
| 20260903112114 | 15 | 305 | 0.0 | 0.0 | 0.00 | 0.10 | 0.10 | 99 | 1016.4 |
| 20260903111614 | 15 | 317 | 0.0 | 0.0 | 0.00 | 0.10 | 0.10 | 99 | 1016.5 |
| 20260903111109 | 15 | 305 | 0.0 | 0.0 | 0.00 | 0.10 | 0.10 | 99 | 1016.4 |
| 20260903110605 | 15 | 324 | 0.0 | 0.0 | 0.00 | 0.10 | 0.10 | 99 | 1016.5 |
| 20260903110100 | 15 | 302 | 0.0 | 0.0 | 0.00 | 0.10 | 0.10 | 99 | 1016.3 |
| 20260903105555 | 15 | 309 | 0.0 | 0.0 | 0.00 | 0.10 | 0.10 | 99 | 1016.3 |
| 20260903105049 | 15 | 310 | 0.0 | 0.0 | 0.00 | 0.10 | 0.10 | 99 | 1016.4 |
| 20260903104544 | 15 | 310 | 0.0 | 0.0 | 0.00 | 0.10 | 0.10 | 99 | 1016.4 |
| 20260903104040 | 15 | 321 | 0.0 | 0.0 | 0.00 | 0.10 | 0.10 | 99 | 1016.6 |
| 20260903103535 | 15 | 323 | 0.0 | 0.0 | 0.00 | 0.10 | 0.10 | 99 | 1016.5 |
| 20260903103032 | 15 | 326 | 0.0 | 0.0 | 0.00 | 0.10 | 0.10 | 99 | 1016.5 |
| 20260903102527 | 15 | 306 | 0.0 | 0.0 | 0.00 | 0.10 | 0.10 | 99 | 1016.8 |
| 20260903102026 | 15 | 305 | 0.0 | 0.0 | 0.00 | 0.10 | 0.10 | 99 | 1016.8 |
| 20260903101520 | 15 | 283 | 0.0 | 0.0 | 0.00 | 0.10 | 0.10 | 99 | 1016.8 |
| 20260903101016 | 16 | 287 | 0.0 | 0.0 | 0.18 | 0.10 | 0.10 | 99 | 1016.9 |
| 20260903100510 | 16 | 308 | 0.0 | 0.0 | 0.18 | 0.10 | 0.10 | 99 | 1016.9 |
| 20260903100009 | 16 | 307 | 0.0 | 0.0 | 0.00 | 0.08 | 0.08 | 99 | 1016.7 |
| 20260903095502 | 16 | 296 | 0.0 | 0.0 | 0.00 | 0.08 | 0.08 | 99 | 1016.7 |
| 20260903094957 | 16 | 309 | 0.0 | 0.0 | 0.00 | 0.08 | 0.08 | 99 | 1016.7 |
| 20260903094457 | 16 | 292 | 0.0 | 0.0 | 0.00 | 0.08 | 0.08 | 99 | 1016.8 |